GEFSSGP_con_prob3kmehi_258.txt.gz
EHI
4 2 1 1 0 0 0 0 0 0 0 0 0 0 0 0 0 0 0 0 0 0 0 0 0 0 0 0 0 0 0 0 0 0 0 0 0 0 0 0 0 0 0 0 0 0 0 0 0
2 2 2 1 0 0 0 0 0 0 0 0 0 0 0 0 0 0 0 0 0 0 0 0 0 0 0 0 0 0 0 0 0 0 0 0 0 0 0 0 0 0 0 0 0 0 0 0 0
1 2 2 1 0 0 0 0 0 0 0 0 0 0 0 0 0 0 0 0 0 0 0 0 0 0 0 0 0 0 0 0 0 0 0 0 0 0 0 0 0 0 0 0 0 0 0 0 0
1 1 1 0 0 0 0 0 0 0 0 0 0 0 0 0 0 0 0 0 0 0 0 0 0 0 0 0 0 0 0 0 0 0 0 0 0 0 0 0 0 0 0 0 0 0 0 0 0
0 0 0 0 0 0 0 0 0 0 0 0 0 0 0 0 0 0 0 0 0 0 0 0 0 0 0 0 0 0 0 0 0 0 0 0 0 0 0 0 0 1 1 1 1 1 1 1 1
0 0 0 0 0 0 0 0 0 0 0 0 0 0 0 0 0 0 0 0 0 0 0 0 0 0 0 0 1 1 0 0 0 0 0 1 1 0 0 0 1 2 2 3 3 3 3 2 2
0 0 0 0 0 0 0 0 0 0 0 0 0 0 0 0 0 0 0 0 0 0 0 0 0 0 1 1 2 2 1 1 1 2 2 2 1 0 0 1 2 3 3 4 5 4 3 3 3
0 0 0 0 0 0 0 0 0 0 0 0 0 0 0 0 0 0 0 0 0 0 0 0 0 1 1 2 2 3 3 2 3 3 3 2 1 1 1 1 3 3 3 4 4 4 3 3 3
0 0 0 0 0 0 0 0 1 1 1 0 0 0 0 0 0 0 0 0 0 0 0 0 0 1 1 1 1 2 3 3 3 3 3 2 1 1 2 2 3 3 3 3 4 4 3 3 3
0 0 0 0 0 0 0 0 0 0 0 0 0 0 0 0 0 0 0 0 0 0 0 0 0 1 1 0 0 1 1 2 2 2 2 1 1 1 1 1 2 2 2 2 3 4 4 3 3
1 0 0 0 0 0 0 0 0 0 0 0 0 0 0 0 0 0 0 0 0 0 0 0 0 1 0 0 0 0 0 1 1 0 1 1 0 0 0 0 1 1 1 0 1 2 3 3 3
1 0 0 0 0 0 0 0 0 0 0 0 0 0 0 0 0 0 0 0 0 0 0 0 0 0 0 0 0 0 0 0 1 1 0 0 0 0 0 0 0 0 1 1 1 1 1 2 1
1 0 0 0 0 0 0 0 0 0 0 0 0 0 0 0 0 0 0 0 0 0 0 0 0 0 0 0 0 0 0 1 1 1 1 1 1 0 0 1 2 2 2 3 2 2 1 1 1
0 0 0 0 0 0 0 0 1 1 1 0 0 0 0 0 0 0 0 0 0 0 0 0 0 0 0 0 0 0 0 1 1 1 2 2 2 1 1 2 3 3 4 4 4 3 3 2 2
0 0 0 0 0 0 0 0 1 1 1 0 0 0 0 0 0 0 0 0 0 0 0 0 0 0 0 1 1 0 0 1 1 1 3 3 3 3 3 3 3 3 4 5 5 4 4 3 3
0 0 0 0 0 0 0 0 0 0 0 0 0 0 0 0 0 0 0 0 0 0 1 0 0 0 1 2 2 1 1 2 3 3 3 3 3 3 3 3 3 3 4 5 5 4 4 3 3
0 0 0 0 0 0 0 0 0 0 0 0 0 1 1 1 0 0 0 0 0 0 0 0 1 1 1 3 3 3 3 4 5 4 4 3 3 3 3 3 3 3 3 4 4 4 3 3 3
0 0 0 0 0 0 0 0 1 1 0 0 0 1 1 1 0 0 0 0 0 0 0 1 3 4 5 5 4 3 4 4 5 5 4 3 4 4 3 3 3 3 3 3 3 3 3 3 4
0 0 0 0 0 0 0 1 2 2 1 0 0 0 0 0 0 0 0 0 0 0 1 4 6 9 11 10 7 6 5 5 6 6 5 5 6 5 4 3 3 4 4 4 4 3 3 4 4
0 0 0 0 0 1 1 1 2 3 2 1 0 0 0 0 0 1 1 1 1 1 3 7 11 14 16 15 12 10 8 7 7 8 8 7 8 7 4 4 4 5 6 6 5 4 4 3 3
0 0 0 0 0 1 2 1 1 1 2 1 0 0 0 0 1 3 5 5 4 4 6 11 15 18 19 19 17 15 12 10 10 10 9 8 8 8 7 7 8 8 7 7 6 5 4 3 1
0 0 0 0 0 0 1 1 0 0 1 1 1 0 0 1 3 6 9 10 9 9 11 15 19 22 24 22 21 18 14 11 11 11 10 8 8 10 12 12 12 10 8 7 7 6 4 2 1
0 0 0 0 0 0 0 0 0 0 0 1 1 1 2 3 5 8 13 14 13 12 14 17 22 27 28 26 25 23 18 14 12 12 11 10 10 12 13 13 13 11 8 7 7 8 6 3 3
0 0 0 0 0 0 0 0 0 0 0 1 1 2 3 4 6 10 17 19 17 16 16 17 23 28 29 28 29 28 24 20 18 16 15 14 14 14 12 12 13 12 9 9 10 10 8 7 7
0 0 0 0 0 0 0 0 0 1 0 0 0 2 5 6 8 12 19 23 23 23 22 21 26 31 30 29 31 32 29 25 24 23 19 15 14 14 13 12 13 13 11 11 12 12 10 9 10
0 0 0 0 0 0 0 0 0 0 0 0 2 5 9 11 12 14 19 23 27 30 28 27 30 34 34 32 32 34 33 29 27 26 22 16 14 15 14 12 13 13 12 12 14 14 11 9 10
0 0 0 0 0 0 0 0 0 0 0 1 3 7 13 17 17 17 20 21 25 29 29 29 32 36 37 36 36 37 37 34 30 29 26 22 19 18 16 14 14 14 13 12 13 13 11 9 9
0 0 0 0 0 0 0 0 0 0 1 2 4 9 15 19 20 21 21 20 22 25 26 28 32 35 36 37 39 41 41 39 36 34 32 30 28 25 20 18 16 15 14 13 11 10 10 9 9
0 0 0 0 0 0 0 0 1 2 2 3 5 10 15 18 20 21 21 20 22 25 27 30 32 31 32 35 38 42 45 43 41 39 37 37 36 32 27 22 19 17 16 15 13 10 8 9 9
0 0 0 0 0 0 0 1 3 4 3 4 7 11 14 15 17 18 19 20 23 26 29 33 33 29 30 33 37 43 47 46 44 42 40 39 38 36 32 25 20 18 17 18 15 11 8 9 9

GEFSSGP_con_prob3kmehi_264.txt.gz
EHI
3 8 16 22 18 6 1 0 1 1 0 0 0 0 0 0 1 1 1 0 0 0 0 0 0 0 0 0 0 0 0 0 0 0 0 0 0 0 0 0 0 0 0 0 0 0 0 0 0
6 10 16 17 10 3 0 0 1 1 1 0 0 0 0 0 0 0 0 0 0 0 0 0 0 0 0 0 0 0 0 0 0 0 0 0 0 0 0 0 0 0 0 0 0 0 0 0 0
9 11 12 8 3 0 0 0 1 1 1 1 0 0 0 0 0 0 0 0 0 1 1 0 0 0 0 0 0 0 0 0 0 0 0 0 1 0 0 0 0 0 0 1 0 0 0 0 0
10 10 7 3 0 0 0 0 0 0 0 0 0 0 0 0 0 0 0 0 1 2 1 0 0 0 0 0 0 0 0 0 0 0 0 0 0 0 0 0 0 0 0 0 0 0 0 0 0
8 7 4 1 0 0 0 0 0 0 0 0 0 0 0 0 0 0 0 1 3 4 2 1 2 2 1 0 0 0 0 0 0 0 0 0 0 0 0 0 0 0 0 0 0 0 1 1 0
5 4 2 0 0 0 0 0 0 0 0 0 0 0 0 0 0 1 1 1 2 5 3 3 4 5 5 3 2 1 1 1 0 0 0 0 0 1 1 1 1 1 1 1 1 1 2 2 1
2 1 0 0 0 0 0 0 0 0 0 0 0 0 0 0 0 1 2 1 1 3 4 4 5 7 7 7 6 4 3 3 1 1 0 1 1 2 3 3 3 3 2 2 2 3 3 3 3
1 0 0 0 0 0 0 0 0 0 0 0 1 1 0 0 0 1 1 1 0 1 3 4 5 6 6 7 9 8 7 6 5 5 4 4 4 4 5 5 5 4 3 3 3 3 3 3 4
0 0 0 0 0 0 0 0 0 0 1 1 2 1 0 0 0 0 0 0 0 0 1 4 6 5 5 6 9 10 10 9 9 9 9 7 6 5 6 7 8 6 4 4 4 4 4 4 4
0 0 0 0 0 0 0 0 0 0 1 2 2 2 0 0 0 0 1 1 0 0 1 3 6 6 5 6 7 8 10 11 11 10 11 9 6 6 5 8 10 8 6 5 5 5 5 4 4
0 0 0 0 0 0 1 1 0 0 0 1 2 2 1 0 0 0 1 1 0 0 0 2 4 6 6 5 5 4 7 11 12 12 12 9 6 6 5 7 9 8 6 6 6 6 5 5 5
0 0 0 0 0 0 1 1 0 0 0 1 2 2 1 0 0 0 1 1 1 1 2 3 5 6 6 5 4 2 4 7 11 15 14 9 6 6 6 7 7 7 7 8 8 6 5 6 6
0 0 0 0 0 0 0 0 0 0 0 0 2 2 1 0 0 0 1 2 4 3 3 6 8 8 7 5 3 2 3 6 10 14 15 10 7 7 8 10 9 7 7 8 8 7 6 6 6
0 0 0 0 0 0 0 0 0 0 0 0 1 2 1 2 2 1 1 3 4 3 4 7 11 13 11 6 3 3 4 7 10 15 16 14 10 9 10 11 10 8 7 8 8 7 7 7 6
0 0 0 0 0 0 0 0 1 1 0 0 1 1 3 4 4 3 3 3 3 4 7 8 11 16 16 10 6 5 6 9 12 16 19 18 14 12 12 12 11 9 8 9 9 8 7 6 6
0 0 0 0 0 0 0 1 2 2 1 1 0 2 5 7 7 6 4 4 4 8 12 10 9 15 17 15 10 8 9 12 14 16 20 21 18 15 14 16 15 12 10 10 9 8 6 6 6
0 0 0 0 0 0 0 1 3 3 3 3 3 5 8 9 9 8 6 6 10 16 19 14 11 14 18 18 14 11 11 14 16 18 22 23 20 17 18 21 20 14 10 9 9 8 7 6 6
0 0 0 0 0 0 0 2 3 3 3 5 6 9 11 11 11 11 9 10 17 25 26 21 18 18 19 20 18 15 13 15 17 20 23 23 20 18 20 23 23 16 11 11 10 9 8 7 5
0 0 0 0 0 0 1 2 4 3 3 5 8 12 14 14 15 14 12 13 22 32 35 31 27 25 22 20 19 17 15 16 18 22 25 24 21 19 21 24 24 19 15 14 14 12 10 7 5
0 0 0 0 0 1 1 2 4 4 3 4 7 13 17 19 22 23 20 19 26 36 41 38 33 30 27 24 20 18 17 18 21 27 30 29 24 22 23 26 25 21 18 18 17 15 12 9 7
0 0 0 0 0 1 2 2 4 4 4 3 6 12 18 23 29 34 33 31 32 38 42 41 38 36 33 30 25 23 23 23 26 32 35 33 28 26 27 29 28 23 20 19 18 17 14 11 9
0 0 0 0 0 1 2 2 4 6 6 5 6 10 16 22 30 37 40 39 37 38 43 47 47 45 41 37 32 30 30 29 30 32 33 33 31 29 30 32 31 27 23 19 18 17 16 13 11
0 0 0 0 0 0 1 1 2 6 8 7 7 10 15 20 26 32 39 43 40 38 44 53 57 55 50 43 38 36 35 33 32 33 34 34 31 30 31 34 34 31 25 21 20 19 17 15 13
0 0 0 0 0 0 0 0 1 3 6 7 8 11 15 19 22 28 37 45 45 42 46 55 62 62 56 47 42 41 40 37 37 39 41 38 34 32 33 35 35 33 27 23 21 20 18 15 14
0 0 0 0 0 0 0 0 0 1 4 6 8 10 15 20 22 25 35 47 51 50 52 58 64 64 57 50 47 46 45 42 43 45 45 41 37 36 37 37 37 34 29 23 20 19 18 16 15
0 0 0 0 0 0 0 0 1 2 3 5 6 8 13 19 24 26 33 45 52 53 57 61 64 62 56 52 51 51 50 48 47 48 46 42 39 38 39 40 39 36 29 21 18 18 18 17 16
0 0 0 0 0 0 0 1 2 3 4 5 6 7 11 18 26 29 32 40 47 52 56 59 60 59 55 52 52 53 55 55 52 50 47 43 40 39 39 42 41 35 28 22 19 18 18 16 15
0 0 0 0 0 0 0 1 3 5 6 6 6 7 11 19 26 29 31 35 42 47 49 52 56 58 56 53 54 55 58 59 57 53 50 47 45 43 42 43 41 34 29 27 24 21 18 15 14
0 0 0 0 1 0 0 1 3 5 8 9 9 10 13 19 24 26 28 31 34 37 39 44 52 56 57 56 56 57 58 60 59 55 53 52 50 47 44 43 39 33 30 29 29 25 19 15 13
0 0 0 1 2 1 0 0 2 5 8 11 12 14 17 19 22 24 27 28 27 29 33 39 47 54 57 58 58 58 59 60 59 56 55 54 51 47 44 41 38 33 29 29 29 25 19 15 13

GEFSSGP_con_prob3kmehi_270.txt.gz
EHI
8 6 2 1 1 1 0 0 0 0 0 0 0 1 1 1 0 0 0 0 0 0 0 0 0 0 0 0 0 0 0 0 1 2 2 2 2 3 2 1 0 0 0 0 0 0 0 0 0
4 2 1 0 0 0 0 0 0 0 0 0 0 0 0 0 0 0 0 0 0 0 0 0 0 0 0 0 0 0 0 0 0 1 1 1 1 3 3 1 1 0 0 0 0 0 0 0 0
1 1 1 0 0 0 0 0 0 0 0 0 0 0 0 0 0 0 0 0 0 0 0 0 0 0 0 0 0 0 0 0 0 0 0 0 1 2 3 3 2 1 1 0 0 0 0 0 0
1 2 1 0 0 0 0 0 1 0 0 0 0 0 0 0 0 0 0 0 0 0 0 0 1 0 0 0 0 0 0 0 0 0 0 0 1 2 3 3 3 2 2 1 0 0 0 0 0
1 2 1 0 0 0 0 0 0 0 0 0 0 0 0 0 0 0 0 0 0 0 0 1 1 1 0 0 0 0 0 0 1 1 1 1 1 3 4 4 3 2 1 1 0 0 0 1 1
2 1 0 0 0 0 0 0 0 0 0 0 0 0 0 0 0 0 0 0 0 0 0 1 2 2 1 0 0 0 1 1 1 2 2 1 2 3 5 6 5 3 2 1 0 0 1 2 3
2 1 0 0 0 0 0 0 0 0 0 0 0 0 0 0 0 0 0 0 0 0 0 0 1 2 1 1 1 1 1 1 1 1 1 2 3 4 6 8 8 6 5 3 1 0 1 2 3
2 1 0 0 0 0 0 0 0 0 0 0 0 0 1 1 2 2 1 0 0 0 0 0 0 0 0 0 1 1 1 1 1 2 2 4 4 4 5 7 10 10 9 6 3 1 0 1 1
1 0 0 0 0 0 0 0 1 1 1 0 0 1 2 3 5 4 1 0 0 0 0 0 0 0 0 0 1 1 1 1 2 3 4 4 3 2 2 5 10 13 12 9 6 3 2 0 0
0 0 0 0 0 1 1 1 1 2 2 1 1 2 3 3 4 3 1 0 0 0 0 0 0 0 0 0 0 1 0 0 1 2 2 2 1 0 0 3 8 11 11 9 8 6 4 2 1
0 0 0 0 0 1 2 2 2 2 2 2 3 3 2 1 1 1 0 0 1 1 0 0 0 0 1 1 1 1 1 1 0 0 0 0 0 0 0 1 4 6 7 7 6 6 6 3 1
0 0 0 0 0 1 3 3 2 2 2 3 3 2 0 0 0 0 0 1 2 2 1 0 0 1 2 2 2 2 2 2 1 0 1 1 1 1 1 1 2 3 4 4 4 5 5 3 1
0 0 0 0 0 1 3 3 3 2 3 4 3 1 0 0 0 0 0 1 2 3 2 1 0 1 3 4 3 2 2 3 2 1 2 2 2 2 3 3 3 3 4 3 3 4 4 3 2
0 0 0 0 1 2 3 3 3 3 3 3 3 1 0 1 2 2 2 2 3 3 3 1 0 2 5 6 4 2 3 4 4 4 4 4 4 3 3 3 3 3 3 3 3 3 3 3 3
0 0 0 0 1 2 3 3 4 5 5 4 3 2 2 4 6 6 5 4 3 4 3 3 3 5 8 9 7 4 4 5 5 5 6 7 5 4 4 3 2 2 2 2 3 3 3 3 3
0 0 0 0 0 1 1 2 4 7 8 7 5 4 5 7 9 8 6 4 4 5 5 6 7 8 10 10 9 7 6 5 4 5 7 8 7 6 5 4 2 2 2 3 3 3 3 3 3
0 0 0 0 0 0 0 1 4 7 9 8 6 7 8 9 10 9 7 6 7 8 7 7 7 8 8 9 9 8 6 5 4 5 7 9 8 8 7 5 3 3 3 3 3 3 3 3 3
0 0 0 0 0 0 0 2 4 6 7 7 8 9 11 12 13 13 12 11 12 13 11 8 7 7 8 8 8 7 6 6 5 6 8 10 10 10 8 7 5 4 3 3 3 3 3 3 3
0 0 0 0 0 0 1 4 5 5 6 7 9 11 14 15 17 20 20 17 17 17 15 10 8 9 9 9 9 8 8 7 6 7 10 12 12 12 11 9 6 4 3 3 3 3 3 3 3
0 0 0 0 0 0 1 4 5 4 6 8 9 11 15 17 20 23 22 21 21 21 19 16 13 12 12 12 11 11 10 8 7 8 10 12 12 13 14 12 8 5 3 3 3 3 3 3 3
0 0 0 0 0 0 0 1 2 3 7 11 12 12 16 19 22 23 21 22 24 24 23 20 17 15 15 15 15 13 12 11 10 9 9 11 12 12 14 14 11 7 4 3 3 3 3 2 1
0 0 0 0 0 0 0 0 0 2 6 12 15 16 18 22 25 24 22 22 24 25 25 23 21 19 19 19 18 17 15 14 12 10 8 9 11 13 13 14 14 12 7 5 4 4 3 1 0
0 0 1 1 1 0 0 0 0 0 3 9 15 19 22 26 28 26 23 22 22 24 26 27 26 26 25 23 21 20 18 16 13 10 8 8 10 13 15 15 15 14 11 7 6 5 3 1 0
0 0 1 1 1 0 0 0 0 0 1 5 11 18 24 28 29 27 26 23 22 24 28 31 32 33 32 30 27 24 21 18 16 13 10 9 10 13 15 15 15 15 13 10 8 6 4 2 1
0 0 0 0 0 0 0 0 0 0 1 3 8 15 23 27 29 30 30 27 25 26 31 35 36 37 37 36 34 30 24 21 20 18 14 12 11 12 14 14 13 13 13 12 10 8 6 4 4
0 0 0 0 0 0 0 0 0 0 1 4 8 16 23 25 28 31 33 32 29 30 35 38 37 37 38 38 38 34 28 25 25 25 21 18 16 15 14 14 13 12 13 12 10 8 7 6 6
0 0 0 0 0 0 0 0 0 0 3 7 11 17 23 23 24 29 32 32 31 33 37 38 35 34 35 38 38 35 32 32 33 33 29 24 20 18 18 17 15 13 12 12 10 8 7 6 6
0 0 0 0 0 0 0 0 0 1 4 9 12 17 21 20 19 24 29 31 31 34 37 38 34 32 33 36 38 36 35 37 38 37 32 26 23 21 20 19 16 13 12 11 10 8 7 7 7
0 0 0 0 0 0 0 0 1 2 5 10 13 18 21 20 18 21 26 31 33 36 38 37 35 34 34 36 37 36 36 38 39 37 32 28 26 23 20 19 17 14 12 11 10 9 8 8 7
0 0 0 0 0 0 0 1 2 3 6 12 16 20 23 21 19 21 27 32 36 38 38 37 36 36 37 36 37 37 36 38 39 37 34 31 28 24 20 18 17 15 13 11 10 9 8 7 7

GEFSSGP_con_prob3kmehi_276.txt.gz
EHI
4 1 0 0 0 0 0 0 0 0 0 0 0 0 0 0 0 0 0 0 0 0 0 0 0 1 0 0 0 0 0 0 0 0 0 0 0 0 0 0 0 0 0 0 0 0 0 0 0
2 1 0 0 0 0 0 0 0 0 0 0 0 0 0 0 0 0 0 0 0 0 0 0 0 1 0 0 0 0 0 0 0 0 0 0 0 0 0 0 0 0 0 0 0 0 0 0 0
1 0 0 0 0 0 0 0 0 0 0 0 0 0 0 0 0 0 0 0 0 0 0 0 0 0 0 0 0 0 0 0 0 0 0 0 0 0 0 0 0 0 0 0 0 0 0 0 0
0 0 0 0 0 0 0 0 0 0 0 0 0 0 0 0 0 0 0 0 0 0 0 0 0 0 0 0 0 0 0 0 0 0 0 0 0 0 0 0 0 0 0 0 0 0 0 0 0
0 0 0 0 0 0 0 0 0 0 0 0 0 0 0 0 0 0 0 0 0 0 0 0 1 1 2 1 0 0 0 0 0 0 0 0 1 1 1 0 0 0 0 0 0 0 0 0 0
0 0 0 0 0 0 0 0 0 0 0 0 0 0 0 0 0 0 0 0 0 0 0 0 1 2 3 2 1 1 1 0 0 0 0 1 1 2 1 1 1 0 0 0 0 0 0 0 1
0 0 0 0 0 0 0 0 0 0 0 0 0 0 0 0 0 0 0 0 0 0 0 0 1 1 2 2 3 3 2 0 0 0 0 1 1 1 1 2 2 1 1 0 0 0 0 0 1
0 0 0 0 0 0 0 0 0 0 0 0 0 0 0 0 0 0 0 0 0 0 0 0 0 0 1 1 2 3 1 0 0 0 0 0 0 0 0 1 2 2 1 1 0 0 0 0 1
0 0 0 0 0 0 0 0 0 0 0 0 0 0 0 0 0 0 0 0 0 0 0 0 0 0 0 0 1 1 0 0 0 0 0 0 0 0 0 0 1 1 1 1 1 1 1 0 0
0 0 0 0 0 0 0 0 1 0 0 0 0 0 1 1 0 0 0 0 0 0 0 0 0 0 0 0 0 0 0 0 0 0 0 0 0 0 0 0 0 0 0 1 2 2 1 0 0
0 0 0 0 0 0 0 0 0 0 0 0 1 1 2 2 1 0 0 0 0 0 0 0 0 0 0 0 0 0 0 0 0 0 0 0 0 0 0 0 0 0 0 0 1 1 1 0 0
0 0 0 0 0 0 0 0 0 0 0 1 2 3 3 3 1 0 0 0 0 0 0 0 0 0 0 0 0 0 0 0 0 0 0 1 1 0 0 0 0 0 0 0 0 0 1 1 0
0 0 0 0 0 0 0 0 0 0 0 1 3 4 3 3 2 1 0 0 0 0 0 0 0 0 0 0 0 0 0 0 0 0 1 2 2 1 0 0 0 0 0 0 0 1 2 2 1
0 0 0 0 0 0 0 0 0 0 0 1 2 2 2 2 2 1 0 0 0 0 0 0 0 0 0 0 0 0 0 0 0 0 1 2 3 2 1 0 0 0 0 0 0 1 2 2 2
0 0 0 0 0 0 0 0 0 1 1 1 1 0 1 1 1 0 0 0 0 0 0 0 0 0 0 0 0 0 0 0 0 0 0 2 3 3 1 1 0 0 0 0 0 0 1 1 2
0 0 0 0 0 0 0 0 1 2 2 2 1 0 0 0 0 0 1 1 0 0 0 0 1 1 0 0 0 0 0 0 0 0 1 2 3 3 3 2 1 0 0 0 0 1 1 1 2
0 0 0 0 0 0 0 0 1 3 3 2 1 0 0 1 1 1 2 2 1 0 0 0 1 1 1 0 0 0 0 0 0 0 2 3 4 4 3 2 1 0 0 0 1 2 2 2 1
0 0 0 0 0 0 0 0 1 3 3 3 2 1 1 2 3 3 4 3 2 0 0 0 1 2 1 0 0 0 0 0 0 0 1 3 4 5 4 3 1 0 1 1 2 3 2 1 0
0 0 0 0 0 0 0 0 0 1 2 2 2 2 3 3 3 4 4 3 2 2 1 1 2 2 1 1 0 0 0 0 0 0 0 1 3 5 6 5 3 1 2 3 3 3 2 1 1
0 0 0 0 0 0 0 0 0 0 1 1 1 2 3 3 4 5 5 4 4 4 4 3 3 3 1 1 1 2 1 1 1 0 0 0 2 4 6 7 4 3 3 4 3 3 3 2 2
0 0 0 0 0 0 0 0 0 0 0 1 1 1 3 4 6 8 8 7 6 6 6 5 5 4 2 2 5 6 4 3 2 1 0 0 2 3 6 8 7 5 5 5 4 3 3 3 3
0 0 0 0 0 0 0 0 0 0 0 0 0 1 2 4 7 10 12 10 7 5 5 5 6 6 5 6 9 9 8 7 5 2 0 0 1 3 6 9 9 7 6 6 4 3 3 2 2
0 0 0 0 0 0 0 0 0 0 0 0 0 1 3 5 7 10 12 11 7 5 4 4 6 7 7 8 10 10 10 10 7 3 1 1 1 3 5 7 9 8 7 6 4 2 1 1 1
0 0 0 0 0 0 0 0 0 0 0 0 0 1 4 6 9 11 12 9 7 6 4 3 4 4 6 8 10 10 11 11 10 7 5 4 3 3 3 5 6 8 8 6 4 2 1 1 1
0 0 0 0 0 0 0 0 0 0 0 0 1 2 3 6 11 13 11 8 6 5 3 2 2 3 4 7 9 10 10 13 14 12 10 8 7 6 5 5 6 7 8 7 6 5 3 3 2
0 0 0 0 0 0 0 0 0 0 0 0 1 1 3 7 13 14 11 8 6 4 2 1 2 3 4 7 9 9 10 13 15 14 13 13 11 9 8 6 7 7 7 7 6 6 5 4 4
0 0 0 0 0 0 0 0 0 0 0 0 0 1 4 8 12 14 12 9 7 5 3 3 3 4 6 10 12 12 12 13 15 16 15 14 13 11 10 8 7 6 6 6 6 6 5 5 5
0 0 0 0 0 0 0 0 0 0 0 0 0 2 4 7 9 12 12 11 9 7 6 6 6 7 9 13 14 14 14 14 15 16 16 15 13 13 12 9 6 4 5 6 6 6 5 5 5
0 0 0 0 0 0 0 0 0 0 0 1 1 3 4 5 6 9 13 13 10 8 8 8 9 11 13 15 14 14 14 13 13 14 15 14 13 14 15 11 7 5 5 5 6 5 5 5 5
0 0 0 0 0 0 0 0 0 0 1 2 3 4 4 4 4 9 14 14 10 9 9 9 11 14 16 16 14 13 12 11 11 13 14 14 13 14 15 12 8 7 7 5 4 4 4 4 4

GEFSSGP_con_prob3kmehi_282.txt.gz
EHI
4 3 1 2 2 1 0 0 0 0 0 0 0 0 0 0 0 0 0 0 0 0 0 0 0 0 0 1 3 2 1 0 0 0 0 0 0 0 0 0 0 0 0 0 0 0 0 0 0
2 2 1 1 1 0 0 0 0 0 0 0 0 0 0 0 0 0 0 0 0 0 0 0 0 0 0 1 2 2 1 0 0 0 1 1 1 1 0 0 0 0 0 0 0 0 0 0 0
1 2 1 1 0 0 0 0 0 0 0 0 0 0 0 0 0 0 0 0 0 0 0 0 0 0 0 1 1 1 0 0 1 1 2 2 2 1 0 0 0 0 0 0 0 0 0 0 0
2 2 1 0 0 0 0 0 0 0 0 0 0 0 0 0 0 0 0 0 0 0 0 0 0 0 0 0 0 1 1 1 2 3 3 3 2 1 0 0 0 0 0 0 0 0 0 0 0
3 3 1 0 0 0 0 0 0 0 0 0 0 0 0 0 0 0 0 0 0 0 0 1 1 1 1 0 0 1 2 3 3 3 3 3 2 0 0 0 0 0 0 0 0 0 0 0 0
3 2 1 0 0 0 0 0 0 0 0 0 0 0 0 0 0 0 0 0 0 0 0 1 2 2 2 2 1 2 3 3 3 3 3 3 2 1 0 0 0 0 0 0 0 0 0 0 0
1 1 0 0 0 0 0 0 0 0 0 0 0 0 0 0 0 0 0 0 0 0 0 0 1 2 2 3 2 2 3 3 2 3 3 3 3 3 2 1 1 1 0 0 0 0 0 0 0
0 0 0 0 0 0 0 0 0 0 0 0 0 0 0 0 0 0 0 0 0 1 1 1 1 1 1 1 1 2 3 2 2 2 3 3 4 4 4 3 2 2 1 1 0 0 0 0 1
0 0 0 0 0 0 0 0 0 0 0 0 0 0 1 1 1 1 0 0 0 1 2 2 1 0 0 0 0 1 2 2 2 3 4 4 4 4 4 3 3 3 2 2 1 0 0 1 2
0 0 0 0 0 0 0 0 0 0 0 0 0 0 1 2 2 1 0 0 0 1 1 2 1 0 0 0 0 1 2 3 3 3 4 4 3 3 3 3 3 3 3 2 2 1 1 1 2
0 0 0 0 0 0 0 0 0 0 0 0 0 1 2 3 3 1 0 0 0 0 1 2 2 2 1 0 0 2 4 3 2 3 4 4 3 3 3 3 3 3 3 3 4 3 2 3 3
0 0 0 0 0 0 0 0 0 0 0 0 0 1 2 2 2 1 0 0 0 0 1 2 3 3 2 1 1 3 4 3 2 3 3 3 3 3 3 3 3 3 3 3 4 3 3 3 3
0 0 0 0 0 0 0 0 0 0 0 0 1 1 1 1 1 0 0 0 0 0 1 3 3 3 3 2 1 2 2 1 1 1 2 3 3 3 3 3 3 3 3 3 3 4 4 3 3
0 0 0 0 0 0 0 0 0 0 0 1 2 1 0 0 0 1 1 1 0 1 2 3 3 3 3 2 1 1 1 0 0 0 1 3 3 3 3 4 3 3 3 3 4 5 5 4 4
0 0 0 0 0 0 0 0 0 0 0 1 1 1 0 0 0 1 2 2 1 1 3 3 3 3 3 2 2 2 2 0 0 0 1 2 3 3 4 4 4 3 3 4 5 7 6 5 4
0 0 0 0 0 0 0 0 0 0 0 1 1 1 0 0 0 1 3 3 3 3 3 3 3 3 3 2 2 2 1 1 1 0 1 3 4 4 5 5 4 3 3 4 6 7 6 4 4
0 0 0 0 0 0 0 0 0 1 1 2 3 2 1 0 0 1 2 3 3 3 3 4 3 3 4 3 2 1 1 2 2 1 2 4 6 6 7 7 5 4 4 5 6 6 5 4 4
0 0 0 0 0 0 0 0 1 1 1 3 5 5 2 1 0 1 2 3 2 2 3 4 5 6 6 5 1 0 1 2 3 2 4 5 6 6 7 8 7 5 5 6 6 5 4 4 5
0 0 0 0 0 0 0 0 1 2 2 4 7 7 4 2 1 1 3 3 1 1 3 5 7 9 9 6 3 1 1 1 3 4 6 6 5 6 7 8 8 7 6 6 6 5 4 4 4
0 0 0 0 0 0 0 0 1 2 2 4 8 9 6 4 3 3 4 3 1 1 4 7 10 11 10 7 4 3 2 1 2 5 6 6 5 6 7 9 9 8 7 7 7 7 6 4 4
0 0 0 0 0 0 0 0 0 1 2 5 8 8 8 7 7 6 6 5 3 3 5 7 10 11 11 9 6 5 5 4 5 6 5 5 5 6 8 9 9 9 8 8 9 9 8 7 5
0 0 0 0 0 0 0 0 0 0 2 6 7 7 8 10 10 10 11 10 8 6 5 6 8 10 12 12 11 10 9 8 8 8 7 5 5 5 8 9 10 9 9 9 10 11 10 9 9
0 0 0 0 0 0 0 0 0 0 2 5 7 7 8 10 10 11 14 15 12 9 7 7 9 11 13 14 15 16 14 12 12 12 11 8 6 6 7 9 10 10 10 10 11 12 12 11 10
0 0 0 0 0 0 0 0 0 0 0 2 6 8 8 10 10 10 14 16 15 12 10 9 10 12 12 14 17 19 18 16 16 16 15 12 9 8 9 11 11 12 12 12 13 13 13 11 9
0 0 1 0 0 0 0 0 0 0 0 1 4 7 8 9 8 8 11 15 15 13 11 12 12 12 11 12 15 19 19 18 18 18 16 12 9 9 12 13 13 13 13 13 14 13 12 10 9
0 0 0 0 0 0 0 0 0 0 0 0 2 5 7 6 6 6 9 12 14 13 12 13 14 14 13 13 15 18 18 16 16 18 15 10 8 10 13 14 15 14 14 14 14 12 11 11 11
0 0 0 0 0 0 0 0 0 0 1 1 3 6 7 7 7 7 8 11 14 14 15 16 16 16 14 13 15 16 16 15 14 16 14 10 9 11 13 14 15 16 16 17 16 13 12 12 13
0 0 0 0 0 0 0 0 0 1 2 3 6 8 9 10 11 10 9 12 14 15 17 19 20 18 15 14 15 15 15 15 14 15 15 14 13 13 13 14 16 17 19 21 20 16 14 14 14
0 0 0 0 0 0 0 0 0 0 2 5 9 11 13 14 13 12 12 13 15 16 18 22 24 22 21 19 19 19 17 15 14 14 16 18 17 15 14 15 17 18 19 22 21 17 16 16 15
0 0 0 0 0 0 0 0 0 0 1 6 11 14 14 15 15 14 14 16 17 17 19 25 27 25 25 25 25 24 21 16 12 12 16 20 19 17 15 16 18 19 20 21 20 16 15 16 15

GEFSSGP_con_prob3kmehi_288.txt.gz
EHI
5 9 17 20 14 4 1 0 0 0 0 0 0 0 0 0 0 0 1 2 3 1 1 1 0 0 0 0 1 2 2 2 2 1 2 3 4 3 3 3 3 3 2 2 1 0 1 2 3
7 12 19 20 11 2 0 0 0 0 0 0 0 0 0 0 0 0 0 1 1 1 2 2 1 0 0 0 0 1 1 1 1 1 3 4 4 3 3 3 3 3 2 1 0 0 0 1 2
14 17 20 16 7 1 0 0 0 0 0 0 0 0 0 0 0 0 0 0 0 1 3 4 3 1 0 0 0 0 0 1 1 3 5 5 4 3 3 3 3 3 3 2 1 1 0 0 1
21 22 18 9 3 0 0 0 0 0 0 0 0 0 0 0 0 0 0 0 1 3 5 5 4 3 1 1 1 1 1 2 2 4 5 5 4 3 3 3 3 3 3 3 3 2 1 1 0
23 20 11 3 0 0 0 0 0 0 0 0 0 0 0 0 0 0 0 0 1 3 6 8 8 6 3 2 2 2 2 3 3 3 4 5 4 3 3 3 3 3 3 3 3 3 3 2 1
20 13 4 0 0 0 0 0 0 0 0 0 0 0 0 0 0 0 0 1 2 4 7 10 11 8 5 3 3 3 3 4 4 4 5 6 5 4 4 4 3 3 3 3 3 3 3 3 3
16 8 1 0 0 0 0 0 0 0 0 0 0 0 0 0 0 0 0 1 2 3 5 7 9 9 7 5 4 5 5 6 6 6 7 7 7 6 6 5 4 4 4 4 4 4 4 4 4
7 3 0 0 0 0 0 0 0 0 0 0 0 0 1 1 0 0 1 2 3 2 2 3 6 7 7 6 6 7 8 9 9 9 9 9 9 9 8 8 8 8 8 7 6 6 6 6 5
1 0 0 0 0 0 0 0 0 0 0 0 0 1 2 2 1 0 1 3 3 2 1 2 3 3 4 4 6 8 9 9 10 10 10 10 11 11 11 10 12 13 13 11 9 9 10 9 8
0 0 0 0 0 0 0 0 0 0 0 0 1 2 2 2 1 1 2 4 4 2 1 2 2 2 3 4 5 7 8 9 10 10 11 12 12 11 10 12 14 15 15 13 12 12 11 10 9
0 0 0 0 0 0 0 0 0 0 0 0 2 3 3 3 2 1 1 3 3 2 1 2 4 5 7 7 6 6 7 9 10 12 13 12 11 9 9 11 14 14 14 14 13 12 12 11 10
0 0 0 0 0 0 0 0 0 0 0 1 3 3 3 3 3 1 1 3 4 3 3 6 8 9 11 12 10 7 7 8 10 13 14 11 9 8 8 9 11 12 12 13 12 11 10 10 10
0 0 0 0 0 0 0 0 0 0 0 1 3 4 4 4 3 3 3 5 7 7 7 10 13 13 14 15 13 9 8 8 9 12 14 12 10 9 9 10 10 10 11 11 11 9 8 8 8
0 0 0 0 0 0 0 0 0 0 0 0 2 4 5 5 4 4 5 8 10 10 11 14 15 16 16 16 13 11 9 9 9 10 12 13 12 12 12 12 10 9 9 9 8 7 7 7 7
0 0 0 0 0 0 0 0 1 1 0 0 1 4 5 5 5 5 7 9 10 11 12 13 15 17 17 14 11 9 9 9 9 10 14 16 15 15 15 13 10 9 8 8 7 7 7 8 8
1 0 0 0 0 0 0 1 3 3 1 0 1 3 5 6 6 7 8 9 10 12 14 13 13 15 16 14 10 8 8 8 8 11 17 19 18 18 16 14 12 11 9 9 9 9 9 9 8
1 0 0 0 0 0 0 2 5 5 2 1 2 3 5 6 7 8 8 8 11 18 20 17 16 16 15 13 11 9 9 8 8 12 18 21 21 20 18 16 15 14 11 10 10 10 10 10 9
1 0 0 0 0 0 0 1 5 5 2 2 4 6 7 8 9 10 9 8 14 23 26 25 25 23 18 14 13 12 12 11 11 14 17 19 22 22 20 18 18 17 13 11 10 10 11 11 10
0 0 0 0 0 0 0 1 3 5 2 2 7 9 9 11 12 12 10 10 18 29 33 32 32 29 25 20 17 16 16 14 14 16 18 20 22 22 20 19 20 21 16 11 10 11 12 12 11
0 0 0 0 0 0 0 1 3 4 3 3 6 10 12 14 17 17 14 14 21 33 40 39 36 33 30 25 21 18 16 14 14 18 21 22 23 22 21 21 22 23 19 15 13 14 14 13 12
0 0 0 0 0 0 0 1 3 4 3 2 4 8 13 17 20 21 20 20 25 35 41 42 40 37 33 28 24 20 18 15 16 20 24 24 23 24 23 23 23 23 22 21 19 18 17 16 14
0 0 0 0 0 0 0 1 3 4 3 3 4 7 12 16 19 22 25 25 27 32 38 43 44 41 35 29 25 23 22 21 20 21 24 24 24 25 26 25 24 23 23 24 22 20 20 19 16
0 0 0 0 0 0 0 0 2 3 4 5 7 8 10 15 18 22 26 28 27 28 35 43 47 43 37 31 26 23 23 23 21 22 23 23 24 27 28 28 27 25 24 24 22 21 21 20 18
0 0 0 0 0 0 0 0 1 3 5 7 9 9 11 15 20 24 27 29 27 28 35 45 48 45 38 33 29 26 24 23 22 22 24 24 24 27 28 29 29 28 26 25 24 22 22 21 19
0 0 0 0 0 0 0 1 2 4 5 6 8 9 11 16 23 27 29 30 29 30 38 46 49 45 38 34 31 30 29 28 25 24 25 25 24 25 27 29 30 31 29 28 27 26 25 23 21
0 0 0 1 0 0 0 1 3 4 4 6 9 10 11 15 22 28 30 31 31 33 39 46 49 45 38 35 35 34 34 32 28 26 25 25 25 26 27 29 31 32 31 30 30 31 30 28 25
0 0 0 0 0 0 0 2 4 4 4 6 11 13 13 13 19 26 32 34 35 37 41 45 47 45 41 39 39 38 38 34 29 26 26 26 28 28 28 29 32 33 31 31 32 33 32 31 30
0 0 0 0 0 0 0 2 4 6 5 7 11 15 17 17 20 26 32 36 37 38 42 44 47 48 46 43 42 41 41 38 31 28 27 27 29 30 30 29 30 30 31 31 32 33 32 31 30
0 0 0 0 0 0 0 1 4 6 6 8 12 18 23 24 25 28 30 32 31 32 37 40 45 49 49 47 46 45 44 43 39 35 32 31 33 34 33 29 27 28 30 32 32 31 30 29 27
0 0 0 0 0 0 1 1 3 5 7 10 16 22 27 29 29 29 29 28 28 28 32 36 42 48 49 50 51 49 47 46 43 40 36 36 38 39 35 30 28 28 29 31 31 29 28 27 26

GEFSSGP_con_prob3kmehi_294.txt.gz
EHI
5 2 1 2 2 2 1 0 0 0 0 0 0 0 0 0 0 0 1 2 3 1 1 2 2 1 0 0 0 0 0 0 1 2 2 1 0 0 0 0 0 0 0 0 0 0 0 0 0
3 1 0 1 1 1 0 0 0 0 0 0 0 0 0 0 0 0 0 2 3 1 0 2 3 2 1 0 0 0 0 0 0 1 1 0 0 0 0 0 0 0 0 0 0 0 0 0 0
2 1 0 0 0 0 0 0 0 0 0 0 0 0 0 0 0 0 0 1 2 1 1 2 3 2 1 0 0 0 0 0 0 0 0 0 1 1 1 0 0 0 0 0 0 0 1 1 1
2 1 1 1 0 0 0 0 0 0 0 0 0 0 0 0 0 0 0 0 0 0 1 3 3 2 0 0 1 1 0 0 1 1 1 1 2 2 2 1 1 1 0 0 0 0 1 1 1
1 1 0 0 0 0 0 0 0 0 0 0 0 0 0 0 0 0 0 0 0 1 2 3 3 2 1 0 1 2 1 1 2 2 2 3 3 3 3 3 2 2 1 0 0 0 0 0 0
1 0 0 0 0 0 0 0 0 0 0 0 0 0 0 0 0 0 0 0 1 2 3 3 4 4 2 1 2 3 3 3 4 4 4 4 5 4 4 4 4 3 1 0 0 0 0 0 1
0 0 0 0 0 0 0 1 1 1 0 0 0 0 0 0 0 0 0 0 1 2 3 3 3 3 2 2 4 5 6 6 6 6 5 5 6 6 6 6 5 3 2 1 0 1 2 2 2
0 0 0 0 0 0 0 1 2 1 0 0 0 0 0 0 1 1 0 0 0 1 2 2 1 1 1 2 5 6 6 6 6 6 6 6 6 6 6 6 5 4 3 2 2 3 4 3 3
0 0 0 0 0 0 0 1 2 1 0 0 0 0 0 2 3 3 2 2 1 0 1 1 0 0 0 2 4 5 5 6 6 6 6 5 4 4 4 6 6 5 4 4 5 7 7 5 4
0 0 0 0 0 0 0 1 1 1 1 1 1 1 2 4 4 5 5 4 2 0 0 0 0 0 0 1 1 2 3 3 3 4 4 4 2 2 3 5 6 5 5 5 7 8 7 5 3
0 0 0 0 0 0 0 0 0 1 2 3 3 3 3 5 4 5 6 4 1 0 0 0 0 0 0 0 0 0 1 1 1 2 3 3 2 2 3 4 4 4 4 5 5 6 5 4 4
0 0 0 0 0 0 0 0 0 1 2 4 4 4 4 5 4 4 5 4 2 1 1 0 0 0 0 0 0 0 0 0 0 1 2 3 3 3 3 3 3 3 3 4 5 4 3 4 4
0 0 0 0 0 0 0 0 0 1 3 4 4 4 4 5 5 5 6 7 7 4 1 1 0 0 0 0 0 0 0 0 0 0 2 3 3 3 3 3 3 3 3 4 4 4 3 3 4
0 0 0 0 0 0 0 0 1 3 4 4 4 4 3 4 6 6 8 10 9 5 2 1 1 0 0 0 0 0 0 1 1 2 2 3 3 3 3 3 3 3 3 3 4 3 3 3 3
0 0 0 0 0 0 0 0 1 4 6 5 5 5 4 5 6 7 9 10 8 5 3 2 2 2 1 1 1 1 1 1 2 3 3 3 4 3 3 3 3 3 3 3 3 3 3 3 3
0 0 0 0 0 0 0 0 1 4 7 6 6 7 7 7 7 7 7 9 8 6 5 4 4 5 5 4 3 2 1 1 1 2 3 4 4 4 3 3 3 3 3 3 3 3 3 3 3
0 0 0 0 0 0 0 0 1 3 5 6 7 8 8 8 8 6 6 9 10 8 7 6 6 7 8 7 5 2 1 0 0 0 1 3 5 5 4 4 3 3 3 3 3 3 3 4 4
0 0 0 0 0 0 0 0 0 1 4 6 8 9 9 8 7 6 7 11 13 12 10 8 8 10 10 8 5 3 1 1 0 0 0 2 5 8 7 5 3 3 3 3 3 4 4 5 5
0 0 0 0 0 0 0 0 0 1 3 5 8 10 10 9 7 5 8 14 16 14 12 10 10 12 12 9 6 4 3 2 1 0 0 1 6 9 9 7 5 4 3 3 4 4 4 4 5
0 0 0 0 0 0 0 0 0 0 1 4 7 9 11 10 7 6 10 16 18 15 13 11 11 14 14 12 8 5 4 3 1 1 1 2 5 9 10 9 7 5 4 4 4 4 4 4 4
0 0 0 0 0 0 0 0 0 0 1 3 5 8 11 10 8 9 13 17 18 16 14 12 13 15 16 14 11 8 5 3 2 2 2 2 4 7 8 9 9 7 6 6 6 6 5 4 3
0 0 0 0 0 0 0 0 0 0 1 3 5 7 10 10 10 11 14 17 19 19 17 15 15 17 17 15 13 10 7 5 3 3 3 3 3 5 7 9 9 9 9 8 8 8 7 6 5
0 0 0 0 0 0 0 0 0 0 1 2 4 6 8 11 12 13 14 17 20 22 22 20 20 20 20 18 15 12 9 6 5 4 3 3 3 4 7 9 10 11 11 11 11 10 9 8 7
0 0 0 0 0 0 0 0 0 0 0 1 2 4 6 10 13 14 14 17 21 25 28 27 26 25 24 22 18 15 12 9 8 7 6 5 5 5 6 8 10 11 12 12 12 11 10 9 8
0 0 0 0 0 0 0 0 0 0 0 0 2 3 5 9 13 15 16 18 22 27 32 33 32 30 28 26 23 20 16 13 12 11 10 9 8 6 5 6 7 9 10 11 12 12 11 9 8
0 0 0 0 0 0 0 0 0 1 1 1 2 4 5 8 13 16 17 18 23 28 32 34 33 30 29 29 25 21 18 16 15 15 14 12 10 8 7 6 7 7 8 9 11 12 12 10 9
0 0 0 0 0 0 0 0 1 2 4 4 4 6 7 10 15 19 18 18 22 27 30 32 31 28 28 29 27 22 18 15 14 14 13 11 10 10 10 9 8 7 7 8 10 12 13 12 10
0 0 0 0 0 0 0 0 1 4 7 7 7 9 11 13 17 21 21 19 21 23 25 27 28 27 28 30 29 25 20 16 14 13 10 9 10 10 11 10 8 8 8 9 10 12 13 11 10
0 0 0 0 0 0 0 1 2 5 7 9 9 11 13 15 17 20 22 21 21 22 22 24 28 29 30 31 31 28 23 19 17 15 11 9 10 10 11 10 8 7 8 9 10 11 11 9 8
0 0 0 0 0 0 0 1 3 5 7 8 9 9 12 15 17 19 22 22 23 24 23 23 29 32 32 32 32 29 25 21 20 18 14 11 10 10 12 12 8 7 8 9 10 10 9 7 6